Regional Weather Roundup
Issued by NWS Jackson, KY

Home | Current Version | Previous Version | Graphics & Text | Print | Product List | Glossary On
Versions: 1 2 3 4 5 6 7 8 9 10 11 12 13 14 15 16 17 18 19 20 21 22 23 24 25 26 27
000
ASUS43 KJKL 241610
RWRJKL

EAST KENTUCKY HOURLY WEATHER ROUNDUP
NATIONAL WEATHER SERVICE JACKSON KY
1200 PM EDT TUE MAY 24 2016

NOTE: "FAIR" INDICATES FEW OR NO CLOUDS BELOW 12,000 FEET WITH
NO SIGNIFICANT WEATHER AND/OR OBSTRUCTIONS TO VISIBILITY.

* THESE REPORTS ARE NOT UNDER NWS QUALITY CONTROL AND MAY NOT
  REPORT WEATHER SUCH AS PRECIPITATION AND FOG.

KYZ079-080-083-085-087-088-110-112-115-119-120-241700
...EASTERN KENTUCKY...

CITY           SKY/WX    TMP DP  RH WIND       PRES   REMARKS
JACKSON        SUNNY     73  53  49 S3        30.17R
LONDON         SUNNY     74  52  46 VRB6      30.16S
SOMERSET*      SUNNY     72  52  49 CALM      30.17R
MONTICELLO*    SUNNY     76  50  40 W5        30.17S
WILLIAMSBURG*  SUNNY     72  48  43 SW3       30.16S
MIDDLESBORO*   SUNNY     74  53  48 SW6       30.17S
HARLAN APT*      N/A     73  46  38 W5        30.18S
HAZARD APT*    SUNNY     75  52  43 W3        30.17R
BLACK MTN*       N/A     64  50  59 CALM        N/A
PIKE CO APT*     N/A     71  53  52 CALM      30.18S
BIG SANDY APT* MOSUNNY   73  51  45 W5        30.17S
MOREHEAD APT*  SUNNY     73  52  46 CALM      30.17S
ASHLAND*       SUNNY     75  54  46 SW7       30.13R
$$

KYZ035-036-041-042-044-050-067-078-099-241700
...CENTRAL KENTUCKY...

CITY           SKY/WX    TMP DP  RH WIND       PRES   REMARKS
MT STERLING*   SUNNY     75  52  43 S3        30.17S
FLEMING/MASON* SUNNY    N/A N/A N/A SW5       30.16F
DANVILLE*      SUNNY     75  48  38 CALM      30.16S
RICHMOND*      SUNNY     73  46  38 CALM      30.15S
LEXINGTON      SUNNY     75  47  36 VRB7      30.15R
FRANKFORT      SUNNY     77  46  33 VRB6      30.12F
LOUISVILLE     MOSUNNY   79  46  31 VRB6      30.12S
LEBANON*         N/A     75  46  35 CALM      30.14F
GLASGOW*       MOSUNNY   78  50  37 W5        30.13S
BOWLING GREEN  SUNNY     79  56  45 S6        30.12S
$$

KYZ091>093-OHZ055-061-077-WVZ005-015-034-035-042-241700
...SOUTHERN OHIO/WEST VIRGINIA...

CITY           SKY/WX    TMP DP  RH WIND       PRES   REMARKS
COVINGTON      MOSUNNY   75  50  41 SW5       30.13S
COLUMBUS       MOSUNNY   75  51  43 CALM      30.11S
DAYTON         MOSUNNY   74  50  42 S7        30.13S
WILMINGTON     SUNNY     74  53  48 W8        30.13S
HUNTINGTON       N/A     75  52  44 SW6       30.14R
CHARLESTON       N/A     73  51  46 CALM      30.14F
PINEVILLE*       N/A     73  46  39 MISG      30.21F
BECKLEY        PTSUNNY   67  49  52 CALM      30.20S
BLUEFIELD        N/A     66  47  50 NW5       30.22R
LOGAN CO APT*    N/A     73  50  43 SE5       30.16R
$$

VAZ002-007-008-TNZ017-027-036-066-071-241700
...SOUTHWEST VIRGINIA/EAST TENNESSEE...

CITY           SKY/WX    TMP DP  RH WIND       PRES   REMARKS
WISE*          PTSUNNY   68  41  37 NW3       30.23R
JONESVILLE*      N/A     75  54  46 S5        30.20S
ABINGDON*        N/A     71  52  50 NW9       30.20S
BRISTOL        MOSUNNY   71  53  52 S6        30.19S
SEVIERVILLE*   SUNNY     73  52  46 CALM      30.17S
KNOXVILLE      PTSUNNY   73  52  47 VRB3      30.17S
OAK RIDGE      SUNNY     76  53  44 CALM      30.18S
CROSSVILLE     SUNNY     76  48  37 N7        30.19S
NASHVILLE      MOSUNNY   82  51  34 S7        30.13S
$$

...KEY TO REMARKS...
VSB - VISIBILITY IN MILES
WCI - WIND CHILL INDEX
HX  - HEAT INDEX

$$




USA.gov is the U.S. government's official web portal to all federal, state and local government web resources and services.